Location: Most
(50.5330°N, 13.6500°E)
Time: 05:46:58
(UTC+02:00)

Envisat - Visible Passes

Search period start: 17 October 2021 00:00
Search period end: 27 October 2021 00:00
Orbit: 764 x 766 km, 98.2° (Epoch: 16 October)

Date Brightness Start Highest point End Pass type
(mag) Time Alt. Az. Time Alt. Az. Time Alt. Az.
17 Oct 4.6 05:39:16 10° NNE 05:43:57 36° E 05:48:36 10° SSE visible
17 Oct 6.1 18:39:38 10° SW 18:43:01 18° W 18:46:26 10° NW visible
18 Oct 5.7 05:03:14 10° NE 05:06:44 18° E 05:10:13 10° SE visible
18 Oct 3.0 06:41:14 10° N 06:46:19 73° WNW 06:51:22 10° SSW visible
19 Oct 3.7 06:04:23 10° NNE 06:09:25 58° E 06:14:25 10° S visible
19 Oct 6.7 19:07:42 10° W 19:08:45 11° W 19:09:48 10° WNW visible
20 Oct 5.0 05:27:54 10° NNE 05:32:20 29° E 05:36:44 10° SSE visible
21 Oct 6.0 04:52:12 10° NE 04:55:04 15° E 04:57:54 10° ESE visible
21 Oct 3.0 06:29:40 10° NNE 06:34:47 88° WNW 06:39:53 10° SSW visible
22 Oct 4.1 05:52:55 10° NNE 05:57:51 47° E 06:02:44 10° S visible
22 Oct 6.3 18:54:35 10° WSW 18:57:02 13° W 18:59:29 10° NW visible
23 Oct 5.3 05:16:37 10° NE 05:20:43 24° E 05:24:47 10° SE visible
23 Oct 3.1 06:55:05 10° N 07:00:04 56° WNW 07:05:01 10° SW visible
24 Oct 6.2 04:41:29 10° ENE 04:43:21 12° E 04:45:12 10° ESE visible
24 Oct 3.2 06:18:08 10° NNE 06:23:15 76° ESE 06:28:20 10° S visible
25 Oct 4.5 05:41:30 10° NNE 05:46:15 38° E 05:50:58 10° SSE visible
25 Oct 6.1 18:42:08 10° SW 18:45:21 17° W 18:48:34 10° NW visible
26 Oct 5.6 05:05:23 10° NE 05:09:02 20° E 05:12:41 10° SE visible
26 Oct 3.0 06:43:30 10° N 06:48:34 68° WNW 06:53:36 10° SSW visible
